Location: A�t �Alizem
(31.2076°N, 8.7872°W)
Time: 15:09:43
(UTC+00:00)

USA 238 DEB - Pass Details

Date: 27 November 2020
Orbit: 996 x 1216 km, 63.4° (Epoch: 22 January)

Event Time Altitude Azimuth Distance (km) Brightness Sun altitude
Rises 19:53:51 0° 219° (SW) 3,700 7.2 -29.7°
Reaches altitude 10° 19:56:26 10° 223° (SW) 2,760 6.4 -30.3°
Maximum altitude 20:02:48 60° 302° (WNW) 1,158 3.9 -31.6°
Enters shadow 20:03:54 53° 341° (NNW) 1,242 4.0 -31.9°
